QPF
0.01 0.02 0.02 0.02 0.03 0.03 0.03 0.04 0.04 0.04 0.03 0.03 0.03 0.03 0.03 0.03 0.03 0.02 0.03 0.02 0.01 0.01 0.01 0.01 0.01 0.02 0.01 0.02 0.02 0.02 0.01 0.01 0.01 0.01 0.01 0.01 0.02 0.01 0.01 0.01 0.01 0.01 0.01
0.01 0.02 0.02 0.02 0.02 0.03 0.03 0.03 0.03 0.03 0.02 0.02 0.02 0.02 0.02 0.02 0.02 0.02 0.03 0.02 0.01 0.01 0.01 0.00 0.01 0.01 0.01 0.01 0.01 0.01 0.01 0.01 0.01 0.01 0.01 0.01 0.02 0.02 0.01 0.01 0.01 0.01 0.01
0.02 0.02 0.02 0.02 0.02 0.02 0.01 0.02 0.01 0.01 0.01 0.01 0.01 0.01 0.01 0.01 0.01 0.01 0.01 0.01 0.01 0.01 0.00 0.00 0.01 0.01 0.02 0.02 0.02 0.01 0.01 0.01 0.01 0.01 0.01 0.01 0.01 0.01 0.01 0.02 0.02 0.02 0.01
0.02 0.02 0.02 0.01 0.01 0.01 0.01 0.01 0.01 0.01 0.01 0.01 0.01 0.00 0.00 0.00 0.01 0.01 0.01 0.01 0.01 0.01 0.01 0.00 0.01 0.01 0.02 0.03 0.02 0.01 0.01 0.01 0.01 0.01 0.01 0.01 0.01 0.01 0.01 0.02 0.02 0.03 0.03
0.02 0.02 0.02 0.01 0.01 0.01 0.01 0.01 0.01 0.01 0.01 0.01 0.01 0.00 0.00 0.00 0.01 0.01 0.01 0.01 0.01 0.01 0.01 0.01 0.01 0.01 0.01 0.02 0.03 0.02 0.02 0.01 0.01 0.01 0.01 0.01 0.02 0.03 0.04 0.03 0.03 0.03 0.03
0.03 0.02 0.02 0.02 0.01 0.01 0.01 0.00 0.01 0.01 0.01 0.01 0.01 0.00 0.00 0.01 0.01 0.01 0.01 0.02 0.01 0.01 0.00 0.00 0.00 0.01 0.01 0.02 0.03 0.03 0.02 0.02 0.01 0.01 0.01 0.01 0.01 0.01 0.03 0.04 0.03 0.03 0.02
0.02 0.01 0.01 0.01 0.01 0.01 0.01 0.01 0.01 0.01 0.01 0.01 0.01 0.01 0.01 0.01 0.01 0.01 0.01 0.01 0.02 0.01 0.00 0.01 0.01 0.01 0.01 0.01 0.01 0.01 0.02 0.01 0.01 0.01 0.01 0.00 0.00 0.00 0.01 0.01 0.01 0.01 0.01
0.01 0.01 0.01 0.01 0.01 0.01 0.01 0.01 0.01 0.01 0.01 0.01 0.00 0.00 0.01 0.01 0.01 0.01 0.01 0.02 0.02 0.01 0.00 0.01 0.01 0.01 0.00 0.01 0.01 0.01 0.01 0.01 0.01 0.00 0.00 0.01 0.01 0.01 0.01 0.01 0.01 0.01 0.01
0.01 0.01 0.01 0.01 0.01 0.01 0.01 0.00 0.00 0.01 0.01 0.01 0.01 0.01 0.00 0.01 0.01 0.02 0.02 0.02 0.01 0.01 0.00 0.00 0.00 0.00 0.00 0.01 0.01 0.02 0.01 0.00 0.00 0.00 0.00 0.01 0.01 0.01 0.00 0.01 0.01 0.01 0.01
0.02 0.02 0.01 0.01 0.00 0.00 0.00 0.00 0.00 0.00 0.01 0.01 0.01 0.01 0.01 0.01 0.01 0.02 0.03 0.02 0.01 0.00 0.00 0.00 0.00 0.00 0.01 0.01 0.01 0.02 0.01 0.01 0.00 0.00 0.00 0.01 0.01 0.01 0.00 0.00 0.00 0.01 0.01
0.01 0.01 0.01 0.00 0.00 0.00 0.00 0.00 0.00 0.00 0.00 0.01 0.01 0.01 0.01 0.01 0.01 0.02 0.03 0.02 0.01 0.01 0.00 0.00 0.00 0.01 0.01 0.02 0.01 0.01 0.01 0.01 0.01 0.01 0.01 0.01 0.01 0.01 0.01 0.01 0.00 0.01 0.01
0.01 0.01 0.01 0.00 0.00 0.00 0.00 0.00 0.00 0.00 0.00 0.01 0.01 0.01 0.01 0.01 0.01 0.01 0.02 0.02 0.01 0.01 0.00 0.00 0.00 0.01 0.02 0.01 0.01 0.01 0.01 0.01 0.01 0.01 0.01 0.01 0.01 0.01 0.01 0.01 0.01 0.00 0.00
0.02 0.01 0.01 0.01 0.00 0.00 0.00 0.00 0.00 0.00 0.00 0.00 0.01 0.01 0.02 0.01 0.01 0.01 0.01 0.01 0.01 0.01 0.01 0.01 0.00 0.01 0.01 0.01 0.01 0.01 0.01 0.01 0.01 0.01 0.01 0.01 0.01 0.01 0.01 0.02 0.01 0.01 0.00
0.02 0.01 0.01 0.01 0.01 0.01 0.00 0.00 0.00 0.00 0.00 0.00 0.01 0.01 0.01 0.01 0.01 0.01 0.01 0.01 0.01 0.01 0.01 0.01 0.01 0.01 0.01 0.00 0.01 0.01 0.01 0.01 0.01 0.01 0.01 0.01 0.02 0.02 0.02 0.01 0.01 0.02 0.01
0.02 0.02 0.02 0.01 0.01 0.01 0.01 0.00 0.00 0.00 0.00 0.01 0.01 0.01 0.01 0.01 0.01 0.01 0.01 0.01 0.01 0.01 0.01 0.01 0.01 0.01 0.01 0.01 0.01 0.01 0.01 0.01 0.01 0.00 0.01 0.01 0.01 0.02 0.03 0.02 0.02 0.02 0.02
0.01 0.01 0.01 0.02 0.02 0.02 0.01 0.01 0.00 0.01 0.01 0.01 0.01 0.01 0.01 0.01 0.01 0.01 0.01 0.00 0.00 0.00 0.00 0.00 0.00 0.00 0.01 0.01 0.01 0.01 0.00 0.00 0.00 0.01 0.01 0.01 0.01 0.02 0.02 0.03 0.03 0.02 0.02
0.01 0.01 0.01 0.01 0.02 0.01 0.01 0.01 0.01 0.01 0.01 0.01 0.01 0.01 0.01 0.01 0.01 0.01 0.00 0.00 0.00 0.00 0.00 0.00 0.00 0.00 0.00 0.01 0.01 0.01 0.01 0.01 0.01 0.01 0.01 0.01 0.02 0.02 0.03 0.03 0.03 0.03 0.02
0.01 0.02 0.01 0.01 0.01 0.01 0.01 0.01 0.01 0.01 0.01 0.01 0.01 0.01 0.00 0.01 0.01 0.01 0.01 0.01 0.01 0.01 0.01 0.01 0.01 0.01 0.01 0.01 0.01 0.01 0.01 0.01 0.01 0.01 0.01 0.01 0.01 0.02 0.03 0.03 0.03 0.03 0.04
0.01 0.02 0.01 0.01 0.01 0.01 0.02 0.02 0.02 0.02 0.01 0.01 0.01 0.01 0.01 0.01 0.01 0.01 0.01 0.02 0.03 0.02 0.02 0.02 0.02 0.01 0.01 0.02 0.02 0.02 0.01 0.01 0.01 0.01 0.01 0.01 0.01 0.02 0.02 0.03 0.03 0.03 0.04
0.00 0.01 0.01 0.01 0.01 0.01 0.02 0.02 0.02 0.02 0.02 0.02 0.01 0.01 0.01 0.01 0.01 0.01 0.02 0.02 0.03 0.03 0.02 0.03 0.04 0.04 0.03 0.03 0.03 0.03 0.03 0.02 0.01 0.01 0.01 0.02 0.02 0.02 0.02 0.02 0.02 0.03 0.03
0.00 0.00 0.01 0.01 0.01 0.01 0.01 0.02 0.02 0.02 0.02 0.02 0.02 0.03 0.03 0.02 0.02 0.02 0.02 0.02 0.03 0.03 0.03 0.04 0.05 0.05 0.05 0.04 0.04 0.05 0.04 0.03 0.02 0.02 0.02 0.02 0.02 0.02 0.02 0.02 0.02 0.02 0.03
0.01 0.01 0.01 0.01 0.01 0.01 0.01 0.01 0.01 0.01 0.02 0.02 0.03 0.04 0.04 0.02 0.02 0.02 0.02 0.02 0.02 0.03 0.03 0.04 0.04 0.04 0.05 0.05 0.05 0.06 0.05 0.04 0.04 0.03 0.03 0.03 0.03 0.02 0.02 0.02 0.02 0.02 0.02
0.01 0.01 0.01 0.01 0.01 0.01 0.01 0.01 0.02 0.02 0.02 0.02 0.02 0.02 0.03 0.03 0.02 0.02 0.02 0.02 0.02 0.02 0.02 0.02 0.02 0.03 0.03 0.04 0.04 0.04 0.04 0.03 0.03 0.03 0.04 0.04 0.03 0.03 0.03 0.02 0.02 0.02 0.02
0.00 0.01 0.01 0.01 0.01 0.01 0.01 0.01 0.02 0.02 0.02 0.02 0.02 0.02 0.02 0.02 0.03 0.03 0.03 0.03 0.03 0.02 0.02 0.02 0.02 0.02 0.02 0.03 0.03 0.03 0.03 0.03 0.03 0.03 0.04 0.05 0.04 0.03 0.03 0.03 0.03 0.02 0.02
0.01 0.01 0.01 0.01 0.01 0.01 0.01 0.01 0.01 0.01 0.01 0.02 0.02 0.03 0.03 0.03 0.03 0.03 0.03 0.03 0.03 0.02 0.02 0.02 0.02 0.01 0.02 0.02 0.02 0.02 0.03 0.03 0.03 0.04 0.04 0.04 0.05 0.04 0.03 0.03 0.03 0.03 0.03
0.01 0.01 0.01 0.01 0.01 0.01 0.01 0.01 0.02 0.01 0.01 0.02 0.02 0.02 0.03 0.03 0.04 0.03 0.03 0.03 0.03 0.03 0.02 0.02 0.01 0.01 0.01 0.02 0.02 0.03 0.03 0.03 0.03 0.04 0.05 0.05 0.05 0.05 0.04 0.04 0.03 0.04 0.04
MSLP
1016.25 1016.47 1016.72 1017.00 1017.31 1017.66 1018.03 1018.43 1018.85 1019.28 1019.71 1020.13 1020.50 1020.84 1021.11 1021.32 1021.48 1021.59 1021.67 1021.74 1021.79 1021.85 1021.92 1021.98 1022.05 1022.12 1022.19 1022.28 1022.39 1022.52 1022.69 1022.88 1023.09 1023.30 1023.48 1023.61 1023.66 1023.63 1023.52 1023.34 1023.10 1022.85 1022.61
1015.85 1016.01 1016.21 1016.46 1016.76 1017.12 1017.54 1018.00 1018.49 1019.01 1019.52 1019.99 1020.42 1020.77 1021.05 1021.25 1021.39 1021.48 1021.55 1021.60 1021.66 1021.73 1021.81 1021.90 1021.98 1022.06 1022.14 1022.23 1022.34 1022.48 1022.65 1022.86 1023.09 1023.32 1023.53 1023.69 1023.78 1023.77 1023.67 1023.49 1023.25 1022.98 1022.72
1015.70 1015.78 1015.92 1016.13 1016.40 1016.76 1017.19 1017.69 1018.23 1018.79 1019.34 1019.86 1020.30 1020.65 1020.91 1021.10 1021.21 1021.28 1021.33 1021.39 1021.46 1021.55 1021.65 1021.77 1021.89 1021.99 1022.10 1022.20 1022.31 1022.44 1022.61 1022.81 1023.05 1023.29 1023.51 1023.69 1023.80 1023.81 1023.73 1023.57 1023.33 1023.05 1022.77
1015.82 1015.84 1015.91 1016.06 1016.30 1016.63 1017.05 1017.54 1018.10 1018.67 1019.24 1019.76 1020.19 1020.54 1020.78 1020.93 1021.02 1021.07 1021.11 1021.16 1021.25 1021.36 1021.50 1021.65 1021.80 1021.93 1022.04 1022.15 1022.25 1022.37 1022.51 1022.69 1022.90 1023.13 1023.35 1023.54 1023.66 1023.70 1023.65 1023.51 1023.29 1023.02 1022.74
1016.21 1016.17 1016.19 1016.28 1016.46 1016.74 1017.13 1017.60 1018.13 1018.70 1019.25 1019.75 1020.17 1020.49 1020.70 1020.83 1020.89 1020.92 1020.95 1021.01 1021.11 1021.24 1021.40 1021.57 1021.73 1021.87 1021.98 1022.07 1022.14 1022.21 1022.31 1022.43 1022.60 1022.79 1022.99 1023.18 1023.32 1023.39 1023.37 1023.27 1023.10 1022.86 1022.60
1016.85 1016.77 1016.73 1016.76 1016.88 1017.11 1017.44 1017.87 1018.36 1018.89 1019.41 1019.89 1020.28 1020.57 1020.76 1020.86 1020.90 1020.92 1020.94 1020.99 1021.08 1021.22 1021.39 1021.56 1021.71 1021.84 1021.92 1021.95 1021.97 1021.97 1021.99 1022.04 1022.14 1022.28 1022.44 1022.61 1022.76 1022.86 1022.89 1022.85 1022.73 1022.55 1022.32
1017.68 1017.56 1017.48 1017.46 1017.53 1017.69 1017.97 1018.34 1018.78 1019.26 1019.75 1020.18 1020.54 1020.80 1020.97 1021.05 1021.08 1021.08 1021.09 1021.13 1021.21 1021.33 1021.48 1021.62 1021.75 1021.82 1021.85 1021.82 1021.75 1021.67 1021.60 1021.56 1021.58 1021.65 1021.76 1021.91 1022.05 1022.18 1022.25 1022.26 1022.21 1022.09 1021.92
1018.63 1018.50 1018.40 1018.34 1018.36 1018.47 1018.68 1018.99 1019.38 1019.81 1020.24 1020.64 1020.97 1021.21 1021.35 1021.42 1021.43 1021.42 1021.41 1021.42 1021.48 1021.57 1021.67 1021.77 1021.84 1021.85 1021.80 1021.70 1021.54 1021.37 1021.21 1021.08 1021.01 1021.00 1021.06 1021.17 1021.30 1021.43 1021.54 1021.59 1021.59 1021.53 1021.42
1019.65 1019.52 1019.41 1019.33 1019.31 1019.37 1019.53 1019.78 1020.11 1020.49 1020.87 1021.23 1021.52 1021.74 1021.86 1021.91 1021.91 1021.88 1021.84 1021.83 1021.84 1021.88 1021.94 1021.98 1021.98 1021.93 1021.81 1021.63 1021.40 1021.15 1020.91 1020.71 1020.56 1020.48 1020.48 1020.54 1020.64 1020.76 1020.86 1020.94 1020.97 1020.94 1020.87
1020.67 1020.57 1020.46 1020.37 1020.32 1020.34 1020.45 1020.65 1020.92 1021.24 1021.57 1021.88 1022.14 1022.33 1022.43 1022.46 1022.44 1022.38 1022.32 1022.27 1022.25 1022.24 1022.24 1022.22 1022.17 1022.07 1021.90 1021.67 1021.39 1021.10 1020.80 1020.54 1020.33 1020.20 1020.13 1020.13 1020.18 1020.25 1020.33 1020.38 1020.40 1020.38 1020.32
1021.65 1021.57 1021.48 1021.38 1021.32 1021.32 1021.38 1021.53 1021.74 1022.00 1022.28 1022.54 1022.75 1022.90 1022.97 1022.98 1022.94 1022.86 1022.77 1022.69 1022.63 1022.58 1022.54 1022.48 1022.40 1022.26 1022.08 1021.83 1021.54 1021.23 1020.92 1020.63 1020.39 1020.20 1020.08 1020.01 1019.98 1019.98 1019.99 1019.98 1019.96 1019.90 1019.81
1022.54 1022.49 1022.42 1022.33 1022.26 1022.23 1022.26 1022.36 1022.51 1022.71 1022.92 1023.12 1023.29 1023.39 1023.43 1023.41 1023.34 1023.24 1023.13 1023.03 1022.94 1022.86 1022.80 1022.73 1022.63 1022.50 1022.32 1022.10 1021.84 1021.54 1021.25 1020.96 1020.70 1020.48 1020.30 1020.16 1020.05 1019.96 1019.87 1019.77 1019.66 1019.53 1019.39
1023.30 1023.28 1023.22 1023.15 1023.08 1023.04 1023.04 1023.09 1023.19 1023.32 1023.47 1023.60 1023.71 1023.76 1023.76 1023.71 1023.61 1023.49 1023.37 1023.25 1023.15 1023.07 1023.00 1022.94 1022.86 1022.76 1022.62 1022.44 1022.23 1021.98 1021.72 1021.46 1021.21 1020.96 1020.74 1020.53 1020.33 1020.13 1019.93 1019.73 1019.51 1019.29 1019.07
1023.90 1023.91 1023.88 1023.82 1023.76 1023.71 1023.69 1023.70 1023.75 1023.82 1023.90 1023.97 1024.01 1024.01 1023.97 1023.88 1023.77 1023.63 1023.50 1023.37 1023.27 1023.20 1023.14 1023.10 1023.05 1022.99 1022.91 1022.79 1022.64 1022.46 1022.25 1022.02 1021.78 1021.54 1021.28 1021.01 1020.73 1020.44 1020.14 1019.82 1019.50 1019.18 1018.88
1024.34 1024.37 1024.37 1024.34 1024.29 1024.24 1024.21 1024.20 1024.20 1024.23 1024.24 1024.25 1024.23 1024.18 1024.09 1023.98 1023.84 1023.69 1023.55 1023.43 1023.34 1023.28 1023.24 1023.22 1023.21 1023.19 1023.16 1023.10 1023.01 1022.88 1022.73 1022.54 1022.33 1022.08 1021.80 1021.50 1021.16 1020.80 1020.41 1020.01 1019.61 1019.21 1018.83
1024.64 1024.70 1024.73 1024.72 1024.70 1024.67 1024.64 1024.61 1024.59 1024.57 1024.54 1024.49 1024.42 1024.33 1024.20 1024.06 1023.90 1023.75 1023.61 1023.49 1023.41 1023.35 1023.33 1023.33 1023.34 1023.35 1023.35 1023.33 1023.28 1023.20 1023.08 1022.93 1022.74 1022.51 1022.23 1021.91 1021.55 1021.16 1020.73 1020.28 1019.83 1019.38 1018.95
1024.86 1024.95 1025.00 1025.03 1025.04 1025.03 1025.01 1024.98 1024.95 1024.90 1024.83 1024.74 1024.63 1024.50 1024.35 1024.18 1024.01 1023.85 1023.71 1023.60 1023.52 1023.47 1023.45 1023.45 1023.46 1023.48 1023.49 1023.48 1023.45 1023.39 1023.30 1023.17 1023.00 1022.79 1022.53 1022.23 1021.88 1021.48 1021.06 1020.60 1020.14 1019.68 1019.23
1025.05 1025.16 1025.25 1025.31 1025.35 1025.37 1025.37 1025.35 1025.31 1025.24 1025.15 1025.04 1024.90 1024.74 1024.57 1024.39 1024.21 1024.05 1023.91 1023.80 1023.71 1023.66 1023.63 1023.62 1023.61 1023.61 1023.60 1023.58 1023.54 1023.48 1023.40 1023.28 1023.13 1022.94 1022.71 1022.44 1022.13 1021.78 1021.39 1020.97 1020.53 1020.08 1019.64
1025.24 1025.38 1025.50 1025.59 1025.67 1025.71 1025.73 1025.72 1025.68 1025.61 1025.50 1025.37 1025.22 1025.04 1024.86 1024.68 1024.50 1024.34 1024.20 1024.08 1023.99 1023.93 1023.88 1023.84 1023.81 1023.77 1023.73 1023.67 1023.61 1023.52 1023.43 1023.31 1023.17 1023.01 1022.82 1022.59 1022.33 1022.03 1021.70 1021.34 1020.95 1020.54 1020.12
1025.48 1025.63 1025.77 1025.89 1025.98 1026.05 1026.08 1026.08 1026.04 1025.96 1025.85 1025.71 1025.54 1025.36 1025.18 1025.00 1024.83 1024.68 1024.54 1024.43 1024.34 1024.26 1024.18 1024.11 1024.04 1023.96 1023.88 1023.78 1023.67 1023.56 1023.44 1023.31 1023.17 1023.03 1022.87 1022.68 1022.47 1022.24 1021.97 1021.66 1021.33 1020.97 1020.58
1025.72 1025.88 1026.03 1026.16 1026.27 1026.34 1026.38 1026.37 1026.33 1026.24 1026.12 1025.98 1025.81 1025.64 1025.47 1025.30 1025.14 1025.00 1024.88 1024.78 1024.68 1024.59 1024.50 1024.41 1024.30 1024.18 1024.04 1023.90 1023.75 1023.60 1023.45 1023.30 1023.16 1023.02 1022.87 1022.72 1022.54 1022.35 1022.13 1021.87 1021.58 1021.25 1020.89
1025.91 1026.08 1026.23 1026.36 1026.47 1026.53 1026.56 1026.54 1026.49 1026.40 1026.27 1026.13 1025.97 1025.80 1025.64 1025.49 1025.36 1025.25 1025.15 1025.06 1024.97 1024.88 1024.78 1024.66 1024.53 1024.37 1024.20 1024.01 1023.82 1023.63 1023.45 1023.27 1023.11 1022.96 1022.81 1022.66 1022.50 1022.32 1022.12 1021.88 1021.61 1021.30 1020.95
1025.96 1026.13 1026.29 1026.41 1026.51 1026.56 1026.57 1026.54 1026.47 1026.37 1026.24 1026.10 1025.94 1025.79 1025.66 1025.54 1025.43 1025.35 1025.27 1025.21 1025.14 1025.05 1024.95 1024.82 1024.67 1024.49 1024.29 1024.07 1023.84 1023.61 1023.39 1023.18 1022.98 1022.80 1022.62 1022.45 1022.27 1022.08 1021.86 1021.62 1021.34 1021.02 1020.67
1025.80 1025.98 1026.14 1026.26 1026.35 1026.39 1026.39 1026.34 1026.26 1026.15 1026.02 1025.88 1025.74 1025.61 1025.50 1025.41 1025.34 1025.28 1025.24 1025.19 1025.14 1025.07 1024.97 1024.84 1024.67 1024.47 1024.25 1024.00 1023.74 1023.48 1023.21 1022.96 1022.72 1022.50 1022.28 1022.06 1021.84 1021.60 1021.35 1021.07 1020.76 1020.42 1020.05
1025.38 1025.58 1025.75 1025.89 1025.97 1026.01 1026.01 1025.96 1025.87 1025.76 1025.63 1025.50 1025.38 1025.28 1025.19 1025.13 1025.09 1025.06 1025.04 1025.02 1024.98 1024.91 1024.81 1024.67 1024.50 1024.28 1024.03 1023.76 1023.47 1023.17 1022.88 1022.58 1022.30 1022.02 1021.75 1021.48 1021.20 1020.91 1020.61 1020.28 1019.93 1019.55 1019.15
1024.70 1024.94 1025.15 1025.31 1025.42 1025.47 1025.48 1025.43 1025.36 1025.25 1025.14 1025.03 1024.93 1024.84 1024.78 1024.75 1024.73 1024.72 1024.71 1024.70 1024.66 1024.59 1024.48 1024.33 1024.13 1023.90 1023.63 1023.33 1023.01 1022.68 1022.35 1022.02 1021.70 1021.38 1021.06 1020.73 1020.40 1020.06 1019.70 1019.32 1018.93 1018.52 1018.09
Thickness
5666 5663 5660 5657 5654 5651 5647 5645 5642 5640 5638 5635 5633 5631 5629 5627 5626 5624 5622 5621 5619 5618 5617 5616 5615 5615 5613 5612 5612 5610 5609 5608 5606 5608 5608 5609 5610 5611 5612 5613 5614 5615 5616
5663 5659 5655 5651 5648 5645 5642 5640 5637 5634 5632 5630 5627 5625 5623 5621 5620 5618 5617 5615 5613 5612 5611 5610 5610 5610 5608 5608 5607 5605 5605 5604 5603 5603 5603 5603 5604 5605 5606 5606 5608 5609 5610
5659 5654 5650 5646 5643 5640 5637 5635 5632 5629 5626 5624 5621 5619 5617 5615 5613 5612 5611 5609 5608 5607 5606 5605 5605 5605 5604 5603 5602 5600 5600 5601 5599 5598 5597 5597 5598 5599 5599 5600 5601 5602 5604
5654 5649 5645 5641 5638 5635 5632 5629 5626 5623 5620 5617 5615 5613 5611 5609 5607 5606 5605 5603 5602 5601 5601 5601 5600 5600 5599 5599 5598 5596 5596 5595 5594 5593 5592 5591 5592 5592 5592 5593 5594 5595 5596
5648 5644 5640 5637 5633 5629 5626 5623 5620 5617 5614 5611 5609 5606 5605 5603 5602 5600 5599 5598 5596 5595 5595 5595 5595 5596 5596 5595 5594 5593 5592 5589 5588 5587 5586 5586 5586 5586 5586 5586 5587 5588 5589
5642 5638 5635 5631 5627 5623 5619 5616 5613 5609 5607 5604 5602 5600 5598 5597 5596 5595 5594 5592 5591 5589 5589 5588 5589 5590 5591 5591 5591 5590 5589 5586 5584 5582 5581 5581 5581 5581 5581 5581 5580 5580 5582
5636 5632 5628 5625 5620 5617 5613 5609 5606 5602 5600 5597 5595 5593 5591 5590 5590 5590 5589 5587 5585 5584 5582 5582 5583 5584 5584 5584 5584 5584 5584 5583 5582 5579 5578 5578 5578 5578 5577 5576 5575 5575 5576
5630 5626 5622 5618 5614 5610 5606 5603 5599 5596 5593 5590 5588 5586 5584 5584 5583 5583 5582 5580 5578 5577 5577 5576 5576 5576 5577 5577 5577 5576 5575 5576 5576 5575 5575 5575 5575 5574 5573 5573 5571 5570 5570
5623 5619 5616 5611 5607 5603 5599 5596 5593 5590 5587 5584 5582 5580 5577 5577 5577 5576 5575 5572 5571 5571 5570 5570 5570 5570 5571 5571 5569 5568 5568 5569 5569 5570 5570 5570 5569 5569 5568 5565 5564 5563 5563
5617 5614 5610 5605 5601 5597 5594 5590 5587 5583 5580 5578 5575 5573 5571 5570 5570 5569 5568 5566 5565 5564 5564 5563 5564 5564 5564 5563 5562 5561 5560 5561 5561 5561 5561 5562 5562 5561 5561 5560 5559 5557 5557
5611 5607 5603 5599 5595 5591 5587 5583 5580 5576 5573 5570 5568 5566 5564 5563 5563 5562 5561 5559 5558 5557 5557 5557 5557 5557 5557 5556 5555 5554 5554 5554 5553 5552 5552 5552 5552 5552 5552 5553 5553 5552 5552
5603 5600 5596 5592 5589 5585 5580 5576 5573 5569 5565 5562 5560 5558 5556 5555 5555 5555 5554 5554 5552 5550 5550 5549 5549 5549 5549 5548 5547 5547 5547 5545 5544 5543 5542 5542 5542 5543 5544 5545 5545 5546 5547
5595 5591 5588 5585 5581 5577 5573 5569 5564 5561 5558 5555 5552 5550 5549 5548 5547 5547 5547 5546 5545 5543 5542 5543 5542 5541 5540 5539 5539 5538 5537 5535 5534 5533 5533 5533 5534 5534 5535 5535 5536 5537 5538
5587 5583 5579 5576 5572 5569 5566 5562 5558 5554 5551 5548 5546 5544 5542 5541 5540 5539 5538 5538 5537 5535 5533 5533 5533 5532 5530 5529 5528 5527 5526 5525 5524 5524 5524 5524 5524 5524 5525 5525 5526 5527 5528
5577 5574 5571 5568 5564 5561 5558 5555 5552 5549 5547 5544 5541 5539 5536 5535 5535 5534 5532 5530 5528 5526 5524 5522 5521 5520 5519 5518 5517 5516 5516 5515 5514 5514 5514 5514 5514 5514 5514 5515 5516 5517 5518
5569 5565 5562 5559 5556 5553 5549 5546 5544 5541 5540 5538 5536 5533 5532 5531 5529 5527 5525 5523 5521 5519 5516 5512 5511 5510 5509 5508 5507 5507 5506 5505 5505 5504 5504 5504 5505 5505 5505 5505 5505 5506 5507
5560 5557 5554 5551 5548 5544 5541 5538 5535 5532 5530 5529 5527 5525 5523 5522 5520 5518 5516 5514 5512 5510 5506 5504 5502 5501 5500 5499 5498 5498 5497 5496 5495 5495 5494 5494 5495 5495 5495 5495 5495 5496 5497
5552 5550 5546 5543 5540 5536 5533 5530 5527 5524 5520 5518 5516 5515 5513 5512 5510 5508 5506 5503 5500 5498 5496 5495 5494 5493 5492 5491 5490 5489 5488 5487 5486 5485 5485 5484 5485 5485 5485 5485 5485 5486 5487
5544 5540 5537 5534 5531 5528 5525 5521 5518 5515 5512 5508 5506 5504 5502 5501 5499 5496 5494 5492 5489 5488 5487 5486 5486 5485 5484 5483 5482 5481 5480 5479 5478 5476 5476 5475 5475 5475 5475 5476 5476 5476 5477
5534 5533 5530 5525 5522 5519 5515 5512 5508 5505 5502 5498 5496 5494 5491 5489 5487 5485 5483 5482 5480 5479 5478 5477 5477 5476 5475 5474 5474 5473 5472 5470 5469 5468 5467 5466 5466 5465 5465 5466 5466 5466 5467
5525 5523 5521 5516 5513 5510 5507 5503 5500 5496 5493 5490 5487 5485 5483 5480 5478 5476 5474 5472 5471 5470 5469 5468 5467 5467 5466 5465 5464 5464 5463 5462 5461 5460 5459 5458 5457 5457 5457 5457 5456 5457 5457
5515 5512 5509 5506 5503 5500 5497 5494 5490 5487 5484 5480 5477 5475 5473 5470 5468 5466 5465 5464 5462 5461 5460 5459 5458 5457 5457 5456 5455 5454 5453 5452 5452 5451 5450 5449 5448 5448 5448 5448 5447 5447 5447
5505 5502 5499 5496 5493 5491 5487 5484 5481 5477 5474 5471 5468 5466 5464 5461 5459 5458 5457 5455 5454 5453 5451 5450 5449 5448 5447 5446 5445 5445 5444 5443 5443 5442 5441 5441 5441 5440 5440 5440 5439 5439 5439
5496 5493 5490 5487 5483 5480 5477 5474 5471 5468 5465 5462 5460 5457 5455 5453 5451 5450 5449 5447 5446 5444 5443 5441 5440 5439 5437 5436 5436 5436 5435 5434 5434 5433 5433 5433 5432 5432 5432 5431 5431 5431 5431
5486 5483 5480 5477 5474 5471 5468 5465 5462 5459 5457 5454 5452 5449 5447 5445 5443 5441 5440 5438 5437 5435 5434 5432 5431 5429 5428 5428 5427 5427 5426 5426 5425 5425 5425 5425 5424 5424 5424 5423 5423 5422 5422
5477 5474 5470 5467 5465 5462 5459 5456 5454 5451 5449 5447 5444 5441 5439 5437 5435 5433 5431 5429 5428 5426 5425 5424 5422 5421 5420 5419 5418 5418 5418 5418 5418 5417 5417 5417 5417 5416 5415 5415 5415 5414 5414